TimeEEST,TemperatureF,Dew PointF,Humidity,Sea Level PressureIn,VisibilityMPH,Wind Direction,Wind SpeedMPH,Gust SpeedMPH,PrecipitationIn,Events,Conditions,WindDirDegrees,DateUTC
12:20 AM,59.0,30.2,34,30.18,-9999.0,North,10.4,-,N/A,,Clear,350,2013-10-06 21:20:00
12:50 AM,59.0,30.2,34,30.18,-9999.0,North,10.4,-,N/A,,Clear,350,2013-10-06 21:50:00
1:20 AM,55.4,32.0,41,30.18,-9999.0,NNE,6.9,-,N/A,,Clear,30,2013-10-06 22:20:00
1:50 AM,57.2,30.2,36,30.18,-9999.0,North,9.2,-,N/A,,Clear,360,2013-10-06 22:50:00
2:20 AM,57.2,30.2,36,30.18,-9999.0,North,11.5,-,N/A,,Clear,350,2013-10-06 23:20:00
2:50 AM,59.0,28.4,31,30.18,-9999.0,North,13.8,-,N/A,,Clear,360,2013-10-06 23:50:00
3:00 AM,59,28,20,30.21,6,North,13.8,,,,,0,2013-10-07 00:00:00
3:20 AM,57.2,28.4,33,30.18,-9999.0,North,11.5,-,N/A,,Clear,350,2013-10-07 00:20:00
3:50 AM,59.0,28.4,31,30.18,-9999.0,North,13.8,-,N/A,,Clear,350,2013-10-07 00:50:00
4:20 AM,57.2,28.4,33,30.18,-9999.0,North,11.5,-,N/A,,Clear,10,2013-10-07 01:20:00
4:50 AM,50.0,32.0,50,30.18,-9999.0,NE,5.8,-,N/A,,Clear,50,2013-10-07 01:50:00
5:20 AM,51.8,30.2,44,30.18,-9999.0,NE,6.9,-,N/A,,Clear,40,2013-10-07 02:20:00
5:50 AM,50.0,30.2,47,30.18,-9999.0,ENE,5.8,-,N/A,,Clear,60,2013-10-07 02:50:00
6:20 AM,55.4,28.4,36,30.18,-9999.0,North,10.4,-,N/A,,Clear,350,2013-10-07 03:20:00
6:50 AM,48.2,32.0,54,30.18,-9999.0,NNE,5.8,-,N/A,,Clear,30,2013-10-07 03:50:00
7:20 AM,50.0,32.0,50,30.21,-9999.0,NE,5.8,-,N/A,,Clear,40,2013-10-07 04:20:00
7:50 AM,51.8,32.0,47,30.21,-9999.0,NE,8.1,-,N/A,,Clear,50,2013-10-07 04:50:00
8:20 AM,57.2,30.2,36,30.21,-9999.0,East,5.8,-,N/A,,Clear,80,2013-10-07 05:20:00
8:50 AM,60.8,30.2,31,30.24,-9999.0,NE,6.9,-,N/A,,Clear,50,2013-10-07 05:50:00
9:00 AM,60,29,20,30.25,6,NE,6.9,,,,,50,2013-10-07 06:00:00
9:20 AM,64.4,28.4,26,30.24,-9999.0,North,15.0,-,N/A,,Clear,360,2013-10-07 06:20:00
9:50 AM,66.2,28.4,24,30.24,-9999.0,NE,6.9,-,N/A,,Clear,50,2013-10-07 06:50:00
10:20 AM,68.0,30.2,24,30.24,-9999.0,NNE,8.1,-,N/A,,Clear,20,2013-10-07 07:20:00
10:50 AM,69.8,30.2,23,30.24,-9999.0,Variable,2.3,-,N/A,,Clear,0,2013-10-07 07:50:00
11:20 AM,71.6,32.0,23,30.24,6.2,WSW,3.5,-,N/A,,Partly Cloudy,250,2013-10-07 08:20:00
11:50 AM,73.4,30.2,20,30.24,6.2,Variable,4.6,-,N/A,,Partly Cloudy,0,2013-10-07 08:50:00
12:20 PM,71.6,35.6,27,30.24,6.2,SW,10.4,-,N/A,,Partly Cloudy,220,2013-10-07 09:20:00
12:50 PM,71.6,35.6,27,30.24,6.2,SSW,11.5,-,N/A,,Partly Cloudy,210,2013-10-07 09:50:00
1:20 PM,73.4,33.8,23,30.24,6.2,SSW,10.4,-,N/A,,Partly Cloudy,200,2013-10-07 10:20:00
1:50 PM,73.4,35.6,25,30.21,6.2,SSW,10.4,-,N/A,,Partly Cloudy,200,2013-10-07 10:50:00
2:20 PM,73.4,35.6,25,30.21,6.2,SSW,10.4,-,N/A,,Partly Cloudy,200,2013-10-07 11:20:00
2:50 PM,71.6,35.6,27,30.21,6.2,SW,9.2,-,N/A,,Partly Cloudy,220,2013-10-07 11:50:00
3:00 PM,71,35,16,30.23,6,SW,9.2,,,,Scattered Clouds,220,2013-10-07 12:00:00
3:20 PM,71.6,37.4,29,30.21,6.2,SW,10.4,-,N/A,,Partly Cloudy,220,2013-10-07 12:20:00
3:50 PM,71.6,37.4,29,30.21,6.2,SSW,9.2,-,N/A,,Partly Cloudy,210,2013-10-07 12:50:00
4:20 PM,71.6,37.4,29,30.21,6.2,SSW,8.1,-,N/A,,Partly Cloudy,210,2013-10-07 13:20:00
4:50 PM,71.6,37.4,29,30.18,6.2,SW,6.9,-,N/A,,Partly Cloudy,220,2013-10-07 13:50:00
5:20 PM,71.6,37.4,29,30.18,6.2,SSW,5.8,-,N/A,,Partly Cloudy,210,2013-10-07 14:20:00
5:50 PM,71.6,39.2,31,30.18,6.2,SW,5.8,-,N/A,,Partly Cloudy,230,2013-10-07 14:50:00
6:20 PM,71.6,35.6,27,30.18,6.2,WSW,5.8,-,N/A,,Partly Cloudy,250,2013-10-07 15:20:00
6:50 PM,68.0,39.2,35,30.21,6.2,West,4.6,-,N/A,,Partly Cloudy,260,2013-10-07 15:50:00
7:20 PM,60.8,42.8,52,30.21,-9999.0,Variable,3.5,-,N/A,,Clear,0,2013-10-07 16:20:00
7:50 PM,57.2,46.4,67,30.21,-9999.0,ESE,5.8,-,N/A,,Clear,110,2013-10-07 16:50:00
8:20 PM,57.2,44.6,63,30.21,-9999.0,East,4.6,-,N/A,,Clear,80,2013-10-07 17:20:00
8:50 PM,57.2,42.8,59,30.21,-9999.0,NNE,5.8,-,N/A,,Clear,30,2013-10-07 17:50:00
9:00 PM,56,42,49,30.24,6,NNE,5.8,,,,,30,2013-10-07 18:00:00
9:20 PM,57.2,42.8,59,30.21,-9999.0,NNE,5.8,-,N/A,,Clear,30,2013-10-07 18:20:00
9:50 PM,55.4,41.0,58,30.24,-9999.0,North,4.6,-,N/A,,Clear,360,2013-10-07 18:50:00
10:20 PM,55.4,42.8,63,30.24,-9999.0,ENE,4.6,-,N/A,,Clear,60,2013-10-07 19:20:00
10:50 PM,55.4,41.0,58,30.24,-9999.0,NNE,6.9,-,N/A,,Clear,30,2013-10-07 19:50:00
11:20 PM,53.6,42.8,67,30.24,-9999.0,East,6.9,-,N/A,,Clear,80,2013-10-07 20:20:00
11:50 PM,51.8,41.0,67,30.24,-9999.0,NNE,6.9,-,N/A,,Clear,20,2013-10-07 20:50:00